Zurück zum Katalog

CALSPHERE 2

AktivWissenschaftPO
NORAD 902·PAYLOAD·🇺🇸 United States

Gestartet Oct 6, 1964 von Vandenberg Space Force Base

Loading…

Nächste Überflüge (nächste 24 Stunden)

TLE

AktuellSource: Space-Track

Epoche: Sep 14, 2026, 12:31 UTC

1 00902U 64063E   26257.52172433  .00000015  00000-0  93195-5 0  9997
2 00902  90.2290  77.8960 0017665 333.6473  87.0278 13.52906314868341

Verfolge CALSPHERE 2 in Echtzeit mit AllMySat

Download on the App Store